EW9931 Weather Reports


time (UTC)temp
C
wind
direction
speed
KPH
gust
KPH
rain 1hr
cm
rain 24hr
cm
rain mn
cm
humidity
%
barometer
mb
20260507040055 9 49 0.0 0.0 0.00 0.00 0.00 42 1010.9
20260507034550 10 49 0.0 0.0 0.00 0.00 0.00 39 1010.2
20260507033050 10 49 0.0 0.0 0.00 0.00 0.00 38 1009.7
20260507031546 11 49 0.0 0.0 0.00 0.00 0.00 35 1009.6
20260507030046 12 49 0.0 0.0 0.00 0.00 0.00 32 1010.6
20260507024546 12 49 0.0 0.0 0.00 0.00 0.00 29 1010.4
20260507023056 12 62 0.0 0.0 0.00 0.00 0.00 27 1009.7
20260507021550 13 47 0.0 0.0 0.00 0.00 0.00 26 1009.6
20260507020044 13 35 0.0 0.0 0.00 0.00 0.00 26 1011.7
20260507014556 14 66 0.0 0.0 0.00 0.00 0.00 26 1011.1
20260507013103 15 117 0.0 0.0 0.00 0.00 0.00 26 1010.7
20260507011543 16 28 0.0 0.0 0.00 0.00 0.00 25 1010.3
20260507010042 17 110 3.2 0.0 0.00 0.00 0.00 22 1010.0
20260507004541 17 37 1.6 0.0 0.00 0.00 0.00 20 1010.0
20260507003041 17 59 1.6 0.0 0.00 0.00 0.00 20 1010.1
20260507001554 17 30 1.6 0.0 0.00 0.00 0.00 19 1010.0
20260507000038 17 69 1.6 0.0 0.00 0.00 0.00 21 1009.8
20260506234535 17 318 3.2 0.0 0.00 0.00 0.00 25 1009.7
20260506233032 17 44 1.6 0.0 0.00 0.00 0.00 28 1009.6
20260506231528 16 17 3.2 0.0 0.00 0.00 0.00 27 1009.7
20260506230025 16 37 1.6 0.0 0.00 0.00 0.00 27 1010.2
20260506224522 16 58 3.2 0.0 0.00 0.00 0.00 28 1010.3
20260506223019 16 21 1.6 0.0 0.00 0.00 0.00 28 1010.3
20260506221516 16 45 1.6 0.0 0.00 0.00 0.00 28 1010.5
20260506220015 16 51 1.6 0.0 0.00 0.00 0.00 28 1010.7
20260506214514 15 47 3.2 0.0 0.00 0.00 0.00 29 1010.9
20260506213015 15 44 3.2 0.0 0.00 0.00 0.00 28 1010.9
20260506211511 15 7 4.8 0.0 0.00 0.00 0.00 28 1010.8
20260506210014 16 20 1.6 0.0 0.00 0.00 0.00 29 1010.7
20260506204508 15 38 1.6 0.0 0.00 0.00 0.00 31 1011.2
20260506203006 15 25 1.6 0.0 0.00 0.00 0.00 34 1011.0
20260506201504 14 83 3.2 0.0 0.00 0.00 0.00 32 1011.2
20260506200003 14 13 3.2 0.0 0.00 0.00 0.00 34 1011.3
20260506194502 14 37 1.6 0.0 0.00 0.00 0.00 34 1011.8
20260506193100 14 18 1.6 0.0 0.00 0.00 0.00 34 1011.8
20260506191557 13 34 1.6 0.0 0.00 0.00 0.00 35 1011.8
20260506190056 13 59 0.0 0.0 0.00 0.00 0.00 37 1011.8
20260506184555 12 23 0.0 0.0 0.00 0.00 0.00 40 1012.2
20260506183053 12 278 0.0 0.0 0.00 0.00 0.00 40 1012.9
20260506181546 11 274 0.0 0.0 0.00 0.00 0.00 44 1013.3
20260506180049 10 44 0.0 0.0 0.00 0.00 0.00 48 1013.0
20260506174542 10 325 0.0 0.0 0.00 0.00 0.00 50 1012.9
20260506173041 10 329 0.0 0.0 0.00 0.00 0.00 51 1012.7
20260506171549 9 34 0.0 0.0 0.00 0.00 0.00 52 1013.1
20260506170037 8 340 0.0 0.0 0.00 0.00 0.00 51 1011.7
20260506164538 8 292 0.0 0.0 0.00 0.00 0.00 49 1011.5
20260506163045 8 359 0.0 0.0 0.00 0.00 0.00 48 1011.5
20260506161544 8 13 0.0 0.0 0.00 0.00 0.00 47 1011.9
20260506160030 8 47 0.0 0.0 0.00 0.00 0.00 44 1011.2
20260506154526 7 31 0.0 0.0 0.00 0.00 0.00 43 1011.7
20260506153024 7 37 0.0 0.0 0.00 0.00 0.00 42 1011.8
20260506151521 6 54 0.0 0.0 0.00 0.00 0.00 45 1011.7
20260506150023 5 0 0.0 0.0 0.00 0.00 0.00 49 1012.1
20260506144513 3 0 0.0 0.0 0.00 0.00 0.00 60 1013.0
20260506143010 1 0 0.0 0.0 0.00 0.00 0.00 70 1013.7
20260506141505 1 0 0.0 0.0 0.00 0.00 0.00 73 1013.7
20260506140002 0 0 0.0 0.0 0.00 0.00 0.00 74 1013.4
20260506134620 0 0 0.0 0.0 0.00 0.00 0.00 75 1013.3
20260506133100 0 0 0.0 0.0 0.00 0.00 0.00 75 1012.9
20260506131610 0 0 0.0 0.0 0.00 0.00 0.00 77 1013.3
20260506130057 -1 0 0.0 0.0 0.00 0.00 0.00 78 1012.7
20260506124556 -1 0 0.0 0.0 0.00 0.00 0.00 80 1012.4
20260506123056 -1 0 0.0 0.0 0.00 0.00 0.00 80 1012.2
20260506121604 -1 0 0.0 0.0 0.00 0.00 0.00 80 1012.2
20260506120054 0 0 0.0 0.0 0.00 0.00 0.00 80 1012.6
20260506114555 -1 0 0.0 0.0 0.00 0.00 0.00 80 1012.5
20260506113052 -1 0 0.0 0.0 0.00 0.00 0.00 80 1012.4
20260506111610 -1 0 0.0 0.0 0.00 0.00 0.00 80 1012.3
20260506110053 -1 0 0.0 0.0 0.00 0.00 0.00 80 1012.2
20260506104550 -1 0 0.0 0.0 0.00 0.00 0.00 80 1012.0
20260506103050 -1 0 0.0 0.0 0.00 0.00 0.00 80 1012.0
20260506101549 -1 0 0.0 0.0 0.00 0.00 0.00 80 1012.0
20260506100049 -1 0 0.0 0.0 0.00 0.00 0.00 81 1011.9
20260506094548 -1 0 0.0 0.0 0.00 0.00 0.00 82 1011.9
20260506093052 -1 0 0.0 0.0 0.00 0.00 0.00 82 1011.9
20260506091546 -1 0 0.0 0.0 0.00 0.00 0.00 83 1011.8
20260506090045 -1 0 0.0 0.0 0.00 0.00 0.00 85 1011.9
20260506084545 -1 0 0.0 0.0 0.00 0.00 0.00 85 1012.0
20260506083059 -1 0 0.0 0.0 0.00 0.00 0.00 85 1012.0
20260506081548 -1 0 0.0 0.0 0.00 0.00 0.00 85 1012.0
20260506073041 -1 0 0.0 0.0 0.00 0.00 0.28 84 1013.6
20260506071540 0 0 0.0 0.0 0.00 0.00 0.28 84 1013.6
20260506061540 0 0 0.0 0.0 0.00 0.00 0.28 82 1012.9
20260506044535 2 0 0.0 0.0 0.00 0.00 0.28 80 1011.0
20260506043031 2 0 0.0 0.0 0.00 0.00 0.28 79 1010.1
20260506041534 3 0 0.0 0.0 0.00 0.00 0.28 75 1010.2